Aurora, IL

10:15 AM CDT on July 20, 2017 (GMT -0500)
Aurora Municipal

Weather History for KARR - July, 2013

Change the Weather History Date:

Tuesday, July 9, 2013

  Actual Average Record
Temperature  
Mean Temperature 78 °F 72 °F  
Max Temperature 85 °F 84 °F 93 °F (2001)
Min Temperature 71 °F 60 °F 53 °F (2005)
Degree Days  
Heating Degree Days 0 0  
Month to date heating degree days 0 0  
Since 1 June heating degree days 44 41  
Since 1 July heating degree days 0 0  
Cooling Degree Days 13 7  
Month to date cooling degree days 64 63  
Year to date cooling degree days 289 259  
Since 1 June cooling degree days 209 218  
Growing Degree Days 28 (Base 50)    
Moisture  
Dew Point 73 °F    
Average Humidity 84    
Maximum Humidity 94    
Minimum Humidity 74    
Precipitation  
Precipitation 0.06 in 0.11 in 0.78 in (2004)
Month to date precipitation 0.77 0.94  
Year to date precipitation 21.23 17.83  
Sea Level Pressure  
Sea Level Pressure 29.95 in    
Wind  
Wind Speed 7 mph (SW)    
Max Wind Speed 24 mph    
Max Gust Speed 32 mph    
Visibility 7 miles    
Events Rain    
T = Trace of Precipitation, MM = Missing Value Source: NWS Daily Summary

Daily Weather History Graph

Daily Weather History Graph

Search for Another Location

Airport or City:

Trip Planner

Search our weather history database for the weather conditions in past years. The results will help you decide how hot, cold, wet, or windy it might be!

Date:

Astronomy

Jul. 09, 2013 Rise Set
Actual Time 5:27 AM CDT 8:30 PM CDT
Civil Twilight 4:54 AM CDT 9:03 PM CDT
Nautical Twilight 4:11 AM CDT 9:46 PM CDT
Astronomical Twilight 3:21 AM CDT 10:36 PM CDT
Moon 6:54 AM CDT (7/9) 9:04 PM CDT (7/9)
Length of Visible Light 16h 09m
Length of Day
15h 02m
New Moon, 2% of the Moon is Illuminated
Jul 9
New Moon
Jul 15
First Quarter
Jul 22
Full
Jul 29
Last Quarter
Aug 6
New

Hourly Weather History & Observations

Time (CDT) Temp. Heat Index Dew Point Humidity Pressure Visibility Wind Dir Wind Speed Gust Speed Precip Events Conditions
12:52 AM 75.9 °F - 73.0 °F 91% 29.99 in 6.0 mi WSW 3.5 mph - N/A   Partly Cloudy
1:52 AM 75.0 °F - 73.0 °F 94% 29.98 in 6.0 mi WSW 5.8 mph - N/A   Clear
2:52 AM 75.0 °F - 72.0 °F 90% 29.98 in 6.0 mi WSW 3.5 mph - N/A   Clear
3:52 AM 73.9 °F - 72.0 °F 93% 29.99 in 5.0 mi SW 3.5 mph - N/A   Clear
4:52 AM 72.0 °F - 70.0 °F 93% 29.98 in 3.0 mi Calm Calm - N/A   Clear
5:03 AM 71.6 °F - 69.8 °F 94% 30.00 in 2.5 mi Calm Calm - N/A   Clear
5:20 AM 71.6 °F - 69.8 °F 94% 30.00 in 3.0 mi Calm Calm - N/A   Clear
5:31 AM 71.6 °F - 69.8 °F 94% 30.00 in 2.0 mi Calm Calm - N/A   Clear
5:52 AM 72.0 °F - 70.0 °F 93% 29.98 in 2.0 mi Calm Calm - N/A   Clear
6:52 AM 75.0 °F - 73.0 °F 94% 29.98 in 3.0 mi Calm Calm - N/A   Clear
7:52 AM 77.0 °F - 73.9 °F 90% 29.98 in 3.0 mi SSW 3.5 mph - N/A   Mostly Cloudy
8:52 AM 79.0 °F - 73.9 °F 84% 29.97 in 6.0 mi SW 5.8 mph - N/A   Haze
9:52 AM 81.0 °F 86.7 °F 75.0 °F 82% 29.97 in 7.0 mi SW 8.1 mph - N/A   Partly Cloudy
10:52 AM 81.0 °F 86.2 °F 73.9 °F 79% 29.99 in 8.0 mi SW 13.8 mph 20.7 mph N/A   Mostly Cloudy
11:52 AM 78.1 °F - 72.0 °F 81% 29.98 in 9.0 mi WSW 12.7 mph 24.2 mph 0.02 in   Mostly Cloudy
12:52 PM 75.9 °F - 72.0 °F 87% 29.95 in 10.0 mi SSW 5.8 mph - 0.04 in Rain Light Rain
1:52 PM 81.0 °F 86.2 °F 73.9 °F 79% 29.98 in 10.0 mi West 12.7 mph - 0.00 in   Mostly Cloudy
2:52 PM 79.0 °F - 73.0 °F 82% 29.94 in 9.0 mi South 6.9 mph - 0.00 in Rain Light Rain
3:52 PM 81.0 °F 86.7 °F 75.0 °F 82% 29.92 in 9.0 mi SSW 9.2 mph - 0.00 in   Partly Cloudy
4:52 PM 82.9 °F 88.8 °F 73.0 °F 72% 29.90 in 10.0 mi SSW 10.4 mph - N/A   Clear
5:52 PM 84.0 °F 91.9 °F 75.0 °F 74% 29.88 in 9.0 mi SW 10.4 mph - N/A   Clear
6:52 PM 84.0 °F 92.6 °F 75.9 °F 76% 29.87 in 8.0 mi SSW 9.2 mph - N/A   Clear
7:52 PM 82.9 °F 91.8 °F 77.0 °F 82% 29.86 in 8.0 mi SSW 6.9 mph - N/A   Clear
8:52 PM 81.0 °F 87.3 °F 75.9 °F 85% 29.87 in 8.0 mi SW 4.6 mph - N/A   Clear
9:52 PM 79.0 °F - 75.0 °F 88% 29.88 in 10.0 mi SW 6.9 mph - N/A   Clear
10:52 PM 79.0 °F - 75.0 °F 88% 29.88 in 8.0 mi SSW 6.9 mph - N/A   Partly Cloudy
11:52 PM 79.0 °F - 75.0 °F 88% 29.89 in 9.0 mi SSW 6.9 mph - N/A   Scattered Clouds